Location: ??????
(38.0677°N, 22.9870°E)
Time: 15:32:59
(UTC+00:00)

Nadezhda 3 Rocket - Pass Details

Date: 23 May 2024
Orbit: 956 x 998 km, 82.9° (Epoch: 23 June)

Event Time Altitude Azimuth Distance (km) Brightness Sun altitude
Rises 01:32:31 0° 355° (N) 3,726 7.7 -16.6°
Reaches altitude 10° 01:35:05 10° 358° (N) 2,771 7.0 -16.2°
Maximum altitude 01:41:25 68° 82° (E) 1,062 4.4 -15.3°
Drops below altitude 10° 01:47:40 10° 165° (SSE) 2,732 6.1 -14.4°
Sets 01:50:11 0° 168° (SSE) 3,671 6.7 -14.1°
